COSMOS 565

Satellite information

Favourite Embed

Satellite Type and Status

PAYLOADIN ORBIT

Key statistics

Satellite COSMOS 565 at a glance.

Uptime

19023

Days in orbit

Revolutions

≈ 12.5

Per day

Orbit

LEO

Low Earth Orbit

Inclination

74.0

Latest

Satellite identification and parameters

Extended collection of information and parameters for COSMOS 565.

Object identification

Identified? True

Debris? False

Object name: COSMOS 565

International designator: 1973-037B

Object number (NORAD): 6676

Object ID (CCSDS): 6676

Country: COMMONWEALTH OF INDEPENDENT STATES (CIS)

Current information (Y/N): Y

RCS size: MEDIUM

Orbital parameters

Period: 115.296 minutes

Inclination: 74.0189 deg

SMA: 7846.967 km

Apoapsis: 1488.798 km

Periapsis: 1448.866 km

RAAN: 102.8577 deg

Eccentricy: 0.0025444

Argument of periapsis: 87.7817 deg

Mean anomaly: 329.1994 deg

Mean motion: 12.48964243 rev/day

Mean motion (dot): -0.00000025 rev/day2

B* drag term: -0.000058866 1/REarth

Two-line elements (TLE)

Creation date: July 8, 2025, 2:27 a.m.

Reference frame: TEME

Reference center: EARTH

Epoch: July 7, 2025, 7:20 p.m. UTC

TLE line 0: 0 COSMOS 565

TLE line 1: 1 06676U 73037B 25188.80590846 -.00000025 00000-0 -58866-4 0 9995

TLE line 2: 2 06676 74.0189 102.8577 0025444 87.7817 329.1994 12.48964243374513

Live tracking on map

Real-time ground track for satellite COSMOS 565.

In-orbit conjunctions

There are no conjunctions computed for COSMOS 565, at the moment. Check back to stay up to date, as we update our databases every day.

Go to all conjunctions

Associated space launch

Military communications satellites

COSMOS 565 was lifted into orbit during the mission ‘Kosmos-3M | Strela-1M 41-48’, on board a Kosmos-3M space rocket.

The launch took place on June 8, 1973, 3:50 p.m. from 132/1 (132L).

For more information about the launch, click the button.

Launch to space Kosmos-3M | Strela-1M 41-48
Kosmos-3M | Strela-1M 41-48

Agency: N/A

Status: Launch Successful

Launch date: June 8, 1973, 3:50 p.m. UTC

Rocket: Kosmos-3M

Launch pad: 132/1 (132L)

Location: Plesetsk Cosmodrome, Russian Federation

...

Latest news about this satellite

There are no fresh news available about this satellite. Check back as we update our databases every day.


Newsletter sign-up

Weekly statistics, charts and insights to help you stay on top of the space industry.